sat.trackr.live / text

‹ back to catalog

UMBRA-10

NORAD 60547 · 2024-149CH

PAYLOAD ACTIVE UNKNOWN

§ Identity

Operator
Country
US
Launch date
2024-08-16
Launch site
AFWTR
Launch vehicle
Mass (kg)
RCS (m²)

External: N2YO · Heavens-Above · Gunter

§ Orbital elements

Epoch: 2026-05-25T04:31:19.708320Z

Period
94.91 min
Inclination
97.6971°
Eccentricity
0.0001918
Mean motion
15.17225331 rev/d
Perigee alt
512.9 km
Apogee alt
515.6 km
Semi-major
6,892.4 km
B*
8.3805e-4
RAAN
232.0410°
Arg perigee
93.3687°
Mean anomaly
266.7765°
Rev number
9,724

§ Raw data

UMBRA-101 60547U 24149CH  26145.18842255  .00016622  00000+0  83805-3 0  99982 60547  97.6971 232.0410 0001918  93.3687 266.7765 15.17225331 97241

JSON: /api/v1/satellites/60547 · /tle

For live sub-satellite position, see the globe view (requires WebGL).

§ Visibility from observer

Set your observer location to see the next 7 days of passes ≥ 10°. The values pass through the URL so the page stays shareable.

No JS? Fill the form by hand. The geolocation button needs JavaScript.